PRC TEST SPACECRAFT 4

Last updated on Tue Mar 10 2026 00:02:05 GMT+0000 (Coordinated Universal Time)

1 67689U 26024A 26068.69427642 .00000219 00000+0 45504-4 0 9995 2 67689 49.9868 22.7500 0006070 0.3216 359.7729 14.91688172 4589
UTC large
Height (km)
Speed (km/s)
/
Latitude / Longitude
Inclination (degrees)
Orbital Period (minutes)
Azimuth
Elevation
Range (km)
Doppler Factor

Next 0 passes for location: London (51.5072 / 0.1276)

Sorry there are no passes over London.